Theta_e
287 283 281 280 282 283 284 283 282 282 281 279 277 276 275 276 277 279 280 283 288 286 284 285 286 287 289 291 294 301 304 304 304 305 305 307 307 305 304 304 303 302 301 301 301 301 300 300 300 301 301 301 301 302 302 301 301 302 302 302 301 302 302 301 299 299 298 297 296 295 293 292 291 291 291 290 289 289 289 288 288 287 286 285 286 285
288 282 282 284 285 286 286 285 284 283 282 280 279 278 277 277 276 280 281 284 287 284 281 284 286 286 289 291 293 299 302 301 302 304 305 306 305 305 304 303 302 300 299 300 299 299 300 300 300 300 300 300 299 300 301 300 301 302 302 302 301 302 302 301 300 299 299 299 298 295 293 291 291 291 289 288 289 290 290 288 287 287 285 285 285 286
283 282 286 288 290 289 287 286 285 283 282 282 279 279 277 277 276 280 281 283 284 284 282 284 282 284 288 291 293 296 300 302 304 305 305 306 304 303 303 302 299 297 297 298 299 299 299 299 299 300 300 300 300 300 300 301 301 301 301 302 302 301 301 301 301 300 299 299 297 294 293 292 290 291 291 290 291 290 287 287 286 286 285 285 285 285
281 285 288 291 290 288 286 286 284 283 282 281 280 278 276 278 274 271 277 281 282 283 280 283 283 285 287 290 292 296 300 302 303 305 306 307 304 303 302 300 298 297 296 296 297 297 298 298 298 299 299 300 300 300 300 301 300 301 301 301 301 301 302 301 301 301 300 299 295 294 293 292 290 289 291 289 289 288 287 286 286 286 285 284 284 284
284 288 292 291 289 287 285 286 283 281 280 282 281 280 279 278 278 277 277 281 283 285 285 284 282 282 285 286 289 293 298 300 302 302 304 306 306 305 303 301 299 298 297 297 297 297 298 298 298 298 299 300 299 299 299 300 300 301 301 301 301 301 301 301 302 301 299 297 295 293 291 291 289 289 288 287 287 288 288 287 285 285 284 284 284 283
285 290 292 290 289 288 286 283 283 282 279 281 282 282 281 281 279 278 279 279 279 278 284 282 274 275 282 286 287 293 297 298 302 301 302 303 303 303 301 300 300 299 299 298 297 297 298 298 298 299 299 299 299 299 300 300 301 301 301 302 302 301 301 301 301 299 298 296 294 292 290 289 287 286 286 286 286 286 286 285 285 284 284 284 283 282
287 290 289 287 287 285 285 283 285 284 281 280 282 285 283 282 281 280 278 280 275 273 280 286 275 273 283 282 286 292 295 296 300 300 301 302 302 302 301 301 299 298 298 299 298 298 298 298 298 298 298 299 299 300 301 301 301 302 301 301 301 301 301 301 300 299 299 296 295 292 291 291 290 288 288 288 288 287 286 285 283 283 283 283 283 282
287 287 285 286 286 285 284 282 286 285 282 280 287 285 284 281 280 280 280 281 278 282 279 284 282 275 277 283 287 292 293 294 297 299 300 301 301 302 301 301 299 298 298 298 297 298 298 298 298 297 298 299 299 300 301 300 301 301 301 301 301 301 301 300 300 299 299 296 295 292 291 291 290 289 289 288 287 286 286 284 283 282 282 282 282 281
287 285 284 285 285 284 282 285 287 287 283 285 289 286 283 282 282 281 281 281 281 279 276 281 283 276 276 282 288 292 289 292 294 297 299 300 301 301 301 301 299 299 298 298 297 298 298 298 299 299 298 299 300 300 300 300 300 301 301 301 301 301 301 300 300 299 298 298 296 293 292 291 291 290 289 289 288 286 287 284 283 282 281 281 280 281
287 287 286 286 284 283 286 287 288 287 283 288 291 291 287 285 283 282 281 281 281 278 274 278 282 275 275 284 287 291 290 290 293 297 299 300 301 302 301 300 300 299 299 299 299 299 299 299 299 299 300 300 300 300 301 301 300 300 300 300 300 300 300 300 299 299 298 298 297 294 292 292 290 290 288 287 287 286 286 285 283 282 281 280 280 279
289 292 288 286 285 286 286 288 288 287 288 293 289 287 287 285 284 284 283 282 279 274 277 282 282 279 274 283 286 287 287 292 295 298 300 301 301 302 302 300 299 299 299 299 299 300 300 300 300 300 299 299 300 300 300 300 300 300 300 300 299 299 300 300 299 299 298 297 296 294 293 291 290 289 288 287 286 286 285 284 283 281 281 280 279 280
287 287 286 285 290 287 288 287 290 290 289 289 285 285 285 283 284 282 281 282 275 273 275 281 281 281 271 280 286 291 294 296 296 297 299 300 300 301 301 301 300 300 299 299 299 299 300 299 299 300 299 299 299 299 299 299 299 299 299 299 299 299 299 300 299 299 298 297 295 293 293 292 291 290 289 287 286 286 285 284 282 281 280 280 280 279
283 284 286 287 289 289 287 286 288 288 288 286 284 283 279 277 278 274 278 273 274 272 275 278 282 277 278 281 286 290 291 295 297 299 300 301 301 301 301 300 300 300 299 299 298 298 298 298 298 298 298 298 298 298 298 299 299 299 299 299 298 298 299 299 299 298 298 296 294 293 293 292 292 290 289 288 288 287 286 285 283 281 281 280 280 278
281 284 286 285 286 289 288 283 282 283 286 285 282 281 277 275 273 272 274 277 277 279 281 283 285 279 282 285 285 288 291 291 296 298 300 302 302 302 302 301 300 300 300 300 299 299 298 298 298 298 297 297 298 298 298 298 298 298 298 298 298 298 299 299 299 299 298 296 295 294 293 293 293 291 290 289 289 287 287 286 285 283 282 281 280 279
275 274 278 285 282 288 287 287 285 284 284 284 286 284 282 279 276 273 275 273 275 277 281 284 280 275 277 282 286 285 286 287 289 294 300 302 302 303 302 302 301 300 300 300 300 299 299 299 298 298 297 297 297 298 298 298 298 299 298 298 298 298 299 299 299 298 298 297 296 295 294 293 293 292 291 290 290 288 287 287 286 284 283 282 280 280
276 277 282 287 288 287 286 288 289 285 284 285 286 286 282 279 282 277 279 277 277 277 279 280 281 282 283 288 287 286 287 288 291 296 300 300 301 302 301 301 300 300 300 300 300 300 299 299 299 298 297 297 297 298 298 298 298 298 298 298 298 298 298 299 298 298 297 297 296 295 294 294 293 293 291 291 290 289 289 287 286 285 284 283 282 280
278 276 283 285 288 288 288 287 287 287 278 284 284 281 282 285 283 279 280 282 280 278 276 283 283 284 285 287 288 290 289 289 292 296 298 299 300 301 300 301 300 300 300 300 300 299 299 299 298 298 297 296 296 297 297 297 298 298 299 298 298 298 299 299 299 298 297 297 295 295 295 294 293 292 291 291 290 289 289 288 287 286 285 284 282 280
275 277 285 284 285 285 285 286 286 288 287 284 280 283 286 286 284 281 277 279 276 274 276 281 279 280 281 279 288 292 291 292 294 295 296 298 300 300 301 301 301 301 301 301 300 299 299 298 298 297 297 297 297 297 297 297 298 299 299 299 298 298 298 298 299 298 297 296 295 295 295 294 293 293 292 292 291 289 288 288 287 286 285 283 282 281
280 275 281 284 284 286 285 287 286 288 288 285 283 287 281 278 278 281 279 275 274 273 275 279 277 275 278 280 285 286 287 292 294 296 297 297 299 300 301 301 302 302 302 301 300 299 298 297 297 297 297 297 297 297 297 298 299 299 299 300 299 299 299 299 298 298 297 296 296 296 295 295 294 293 293 292 291 290 289 288 287 286 285 283 282 282
281 272 276 283 284 285 285 284 278 281 286 287 286 284 284 282 279 277 278 277 277 273 275 275 277 274 278 281 284 285 286 287 289 296 297 298 299 300 301 302 302 302 302 301 301 300 299 298 298 298 297 296 297 297 298 298 299 299 299 299 299 299 299 298 298 297 296 296 296 295 295 295 294 294 293 292 291 289 289 288 287 286 284 283 283 282
276 279 271 280 284 284 280 281 280 279 279 281 281 280 281 281 283 281 280 277 276 272 273 275 275 277 278 284 285 286 286 287 288 291 298 299 300 301 301 302 302 303 302 302 301 301 299 298 298 298 298 297 298 298 298 298 298 299 299 299 298 298 297 297 297 297 297 296 295 295 294 294 294 294 294 292 291 290 289 288 287 285 284 283 282 282
271 271 273 278 278 278 279 282 280 281 281 280 280 279 279 278 277 276 275 279 275 275 271 274 273 275 279 286 286 286 286 288 291 292 297 300 300 301 302 302 303 303 303 303 301 301 300 299 298 298 298 298 297 297 297 298 298 298 298 299 298 298 297 297 296 296 296 296 296 295 295 294 294 294 294 293 291 291 289 288 286 285 283 282 283 282
280 275 274 273 276 278 282 280 279 281 282 281 281 280 280 280 280 276 273 276 277 276 276 271 269 275 284 284 285 285 286 287 289 291 294 300 301 301 302 302 302 303 304 304 303 303 302 301 300 300 298 297 297 297 297 297 298 298 298 298 298 298 298 298 297 297 297 297 296 296 295 295 294 294 293 292 291 290 289 288 286 285 283 283 283 282
286 271 269 275 277 279 280 278 278 279 280 280 281 281 280 278 280 279 279 279 276 276 275 273 275 279 286 286 285 284 284 284 286 288 293 298 300 301 301 301 301 302 302 303 303 304 303 302 301 300 299 298 298 297 297 297 298 298 298 298 298 298 298 298 298 298 297 297 296 296 295 294 294 293 293 292 291 290 289 288 286 285 284 284 282 281
271 268 273 270 272 275 276 279 280 279 280 279 278 280 281 281 281 281 279 278 275 275 274 274 275 280 286 287 288 288 289 290 291 291 292 298 299 300 300 300 301 302 301 301 303 303 303 302 301 301 300 300 299 298 298 298 298 298 298 298 298 298 298 298 298 298 297 297 296 296 295 294 293 293 293 292 292 291 290 288 286 284 284 283 282 281
275 269 271 268 267 267 268 269 272 274 277 279 280 281 281 279 278 280 278 278 275 276 275 273 276 282 287 288 288 287 288 290 291 291 292 293 296 297 297 298 299 300 301 301 301 302 302 302 302 302 301 301 301 300 300 299 299 299 299 299 299 298 298 298 298 298 297 297 296 295 294 294 294 293 293 293 292 291 289 288 286 285 284 283 282 281
268 268 268 266 269 270 274 275 277 280 278 275 279 279 278 280 280 279 280 278 276 277 277 278 279 281 284 285 285 286 286 287 289 290 291 292 292 293 294 294 295 296 297 299 301 301 301 302 302 302 302 302 302 302 301 301 300 300 300 299 299 299 298 298 298 298 297 297 296 295 294 294 294 293 293 293 292 290 289 287 286 284 284 283 282 281
266 269 265 268 270 276 278 278 277 278 276 278 277 277 278 278 278 280 279 279 281 279 277 281 281 281 282 284 285 285 286 286 287 288 291 290 289 291 292 292 293 293 293 293 295 298 300 301 302 302 302 301 301 301 302 302 301 301 300 300 299 299 298 298 297 297 296 296 295 295 294 294 294 293 293 293 291 290 289 287 286 285 285 284 282 281
270 267 268 267 270 274 275 275 275 274 276 277 277 276 276 277 278 279 279 279 279 278 278 281 281 281 283 284 285 286 287 285 286 287 288 287 285 286 288 291 292 292 292 292 294 295 296 298 300 300 300 301 300 301 300 301 300 300 300 300 299 298 298 297 296 295 295 295 295 295 295 294 293 293 293 292 291 290 288 287 286 285 285 283 282 281
272 265 266 267 271 272 270 273 273 273 274 275 275 276 276 276 277 278 279 279 279 280 280 282 281 281 284 285 286 287 287 285 286 286 284 285 286 287 287 288 290 290 290 291 292 293 293 295 296 297 298 298 300 300 300 300 300 299 299 298 298 297 297 295 295 295 295 295 295 295 294 294 293 293 292 291 290 289 288 287 286 285 284 283 282 281
273 267 276 265 268 267 267 271 272 271 271 272 276 275 275 275 276 278 278 279 278 279 279 280 281 282 286 287 286 287 285 285 286 286 287 286 285 286 287 288 290 290 290 290 290 291 291 291 292 294 295 296 297 298 299 298 298 297 296 296 295 296 295 294 294 294 294 294 295 295 294 293 292 292 291 291 290 289 288 287 286 285 284 284 282 281
274 271 261 260 269 266 265 266 270 267 269 271 272 276 276 275 275 276 278 279 279 280 279 279 280 281 285 285 285 285 284 285 286 286 286 286 286 286 287 288 289 289 289 290 290 291 291 291 291 292 294 295 296 296 296 297 296 295 295 295 295 295 293 293 294 293 293 293 293 293 293 292 291 290 290 289 289 288 288 287 286 285 284 283 282 281
269 267 269 263 266 261 266 266 267 267 270 272 275 277 277 276 277 277 277 278 279 281 279 277 280 283 285 284 283 284 284 285 285 285 285 285 285 285 285 287 288 287 288 289 289 290 290 291 292 292 292 292 293 294 295 295 293 294 295 294 294 291 291 292 293 293 293 292 292 291 290 288 288 288 289 289 289 288 287 286 286 285 284 282 281 280
271 270 267 264 267 267 265 267 265 270 267 269 277 278 278 277 277 276 278 277 277 281 280 281 281 281 280 281 282 283 283 285 286 286 286 285 285 284 284 284 284 284 284 284 285 287 288 289 290 291 291 292 291 291 291 289 292 294 292 291 289 290 290 291 291 291 291 290 291 290 289 288 288 288 289 289 288 288 287 286 286 285 284 283 281 280
268 267 266 261 267 266 269 268 271 263 264 275 277 275 275 276 277 276 277 276 277 278 278 279 279 280 281 282 282 282 282 282 282 282 282 283 284 284 284 283 282 282 282 282 282 282 284 287 287 287 287 288 288 287 288 288 289 288 288 289 289 289 289 289 289 289 289 290 290 289 289 289 288 289 289 288 288 287 287 286 286 285 284 283 282 281
266 269 264 268 263 261 266 262 266 267 273 274 274 275 275 275 276 276 277 278 277 278 279 279 280 280 280 279 280 280 280 280 280 281 281 281 282 283 282 282 282 282 282 283 283 283 283 284 285 287 288 287 287 286 287 289 287 288 288 287 289 287 288 288 288 289 289 290 289 288 288 289 289 289 288 287 287 287 287 286 286 285 284 283 282 282
274 267 266 267 263 266 260 259 269 269 274 275 274 277 275 278 277 277 274 278 280 277 279 280 280 280 280 281 279 279 278 278 279 284 282 281 281 281 283 282 282 282 282 282 282 282 282 283 284 285 285 285 287 287 288 287 287 287 286 286 286 287 287 287 288 288 289 288 288 287 287 288 289 289 288 287 287 287 287 286 285 285 284 283 283 282
274 271 268 269 266 261 267 262 262 264 262 268 274 274 276 276 277 277 276 276 280 277 278 280 281 280 280 279 279 278 276 277 280 282 281 281 281 281 281 281 281 281 280 281 281 281 281 281 281 281 284 284 284 286 286 285 286 287 286 286 285 286 286 286 288 288 287 288 287 288 287 288 289 289 288 287 287 287 287 286 286 285 284 284 283 282
271 271 268 268 265 262 263 265 261 265 268 271 276 277 276 275 275 275 273 272 277 278 278 279 281 279 280 281 280 278 277 277 278 278 281 280 280 280 280 281 280 280 280 281 281 281 280 280 280 280 281 282 284 284 283 284 285 286 286 286 285 285 286 286 287 287 287 288 288 288 288 288 288 288 288 288 287 287 287 287 286 286 285 284 284 283
269 262 266 266 264 260 257 262 263 260 266 278 273 273 275 273 276 276 268 267 277 277 276 278 280 280 278 279 278 278 277 275 277 281 279 279 279 279 279 280 280 280 280 278 279 279 280 279 281 282 283 283 284 282 283 284 285 285 286 285 284 285 286 287 287 287 287 287 287 287 287 287 288 288 288 288 288 288 288 288 287 286 285 284 283 283
263 266 264 267 261 264 270 261 261 268 276 274 274 274 274 273 276 269 267 276 277 275 276 277 277 277 278 277 278 283 279 280 280 279 278 277 280 281 279 278 279 279 280 280 279 280 279 278 280 281 281 281 281 281 282 283 284 285 284 284 284 285 287 287 286 286 286 285 286 286 286 286 287 287 288 288 288 288 287 287 286 285 284 283 283 282
262 260 263 259 263 266 259 267 267 268 274 277 275 275 274 276 269 264 277 277 276 276 276 277 277 276 277 278 278 279 282 279 277 277 278 278 279 280 279 279 278 278 277 278 278 277 277 278 278 279 279 279 278 280 282 283 284 284 284 283 285 287 285 285 285 284 284 284 285 285 285 285 285 285 287 287 287 287 287 286 286 285 285 284 283 282
269 267 263 267 263 259 259 262 263 269 273 277 278 277 277 276 273 277 278 276 275 276 276 276 277 276 277 278 278 278 277 278 277 278 278 277 277 278 278 277 277 278 278 277 278 277 277 278 278 279 279 278 278 279 281 282 283 283 282 284 286 286 284 283 284 285 285 285 285 284 285 284 284 284 285 285 284 285 285 284 284 284 283 283 282 282
268 272 263 261 267 268 263 264 269 273 279 277 280 278 275 278 282 276 277 280 278 276 277 277 277 278 277 278 277 277 277 277 277 276 277 277 276 276 276 276 276 276 276 276 276 277 276 277 277 278 278 277 277 278 280 282 283 282 282 285 285 283 281 282 282 283 283 284 284 284 284 284 284 284 284 284 283 283 283 281 281 281 281 281 281 280
274 273 269 275 270 271 267 265 272 273 274 276 278 279 276 275 277 276 278 280 281 280 277 279 279 277 278 278 278 278 278 277 279 277 278 279 278 278 278 278 277 277 277 277 277 276 275 277 278 277 277 276 276 277 279 281 283 282 283 283 283 283 283 282 281 282 282 283 283 283 283 283 283 283 283 283 283 282 282 281 280 280 278 279 279 279
274 275 272 276 275 273 275 279 277 277 277 279 277 279 279 278 276 276 277 279 278 278 278 279 279 278 276 277 280 277 278 278 278 279 278 278 277 278 277 277 277 276 276 276 276 276 276 275 275 275 277 278 275 277 278 280 282 282 283 280 282 283 281 280 280 280 282 282 282 282 281 281 281 281 281 281 282 283 283 283 281 281 279 278 279 279
269 271 275 274 273 274 272 274 276 277 275 275 277 277 278 279 279 278 276 278 279 277 277 277 279 278 277 276 279 280 279 277 278 279 278 278 277 278 277 277 278 277 277 277 277 276 275 273 276 276 276 277 276 277 278 278 281 283 282 280 280 281 279 279 280 281 281 281 281 279 280 281 282 281 280 280 280 281 281 281 281 281 280 279 279 278
276 272 277 272 271 273 275 273 275 275 275 276 277 279 279 280 279 279 280 280 278 277 277 278 276 277 276 277 278 278 279 277 277 279 278 278 278 278 277 277 277 277 276 276 276 275 274 275 276 277 276 278 278 277 277 277 279 280 281 280 278 276 278 279 280 281 281 280 280 280 280 281 280 281 280 280 280 280 280 280 281 281 281 280 280 279
274 276 271 271 275 276 277 280 281 280 280 280 278 277 280 281 279 278 278 278 278 279 279 277 277 278 277 279 277 277 278 279 278 278 278 279 278 278 278 277 277 277 277 276 276 273 277 276 277 277 276 278 279 277 276 277 278 278 278 279 276 276 278 280 279 280 278 278 278 279 279 280 280 281 281 280 279 281 282 282 281 282 282 283 283 283
276 273 272 274 271 270 275 279 274 277 274 280 280 277 276 278 278 279 277 275 276 277 278 278 278 277 278 278 278 277 279 281 278 277 278 278 279 279 277 277 276 276 276 276 276 274 275 274 275 276 277 279 278 277 277 277 277 277 276 275 276 277 279 280 279 277 279 278 278 279 279 279 279 279 280 280 280 280 280 279 282 283 283 283 282 283
278 278 276 275 273 275 277 277 276 278 278 277 278 281 278 275 277 277 278 279 280 279 278 278 278 278 277 277 277 278 279 280 280 278 277 278 279 279 278 277 277 278 278 276 275 275 274 275 274 274 275 278 277 277 277 277 277 276 276 275 276 277 279 278 279 279 279 279 279 280 280 279 279 279 279 280 280 280 280 280 281 282 284 284 282 283
Wind_Speed
1 3 5 9 11 11 10 12 15 13 10 2 2 3 6 6 9 4 5 5 2 2 6 9 8 8 9 10 11 7 9 10 10 11 10 9 8 8 9 10 9 11 10 10 11 11 11 11 10 10 10 10 10 9 10 11 11 12 11 10 8 7 9 8 7 6 6 6 4 3 2 3 2 4 3 3 3 3 2 2 3 3 4 3 3 3
1 4 11 14 15 12 11 9 11 11 6 7 8 6 8 6 12 8 6 1 1 3 4 4 5 7 8 8 10 8 9 12 12 11 11 9 7 9 12 11 9 8 8 10 9 11 11 10 11 10 10 11 14 10 11 12 12 11 10 10 9 7 7 8 8 7 6 4 4 4 4 3 3 4 4 3 2 2 2 2 3 3 4 4 4 3
3 10 16 13 6 7 10 8 9 13 13 8 8 7 7 12 6 11 9 9 4 1 8 11 10 9 8 9 9 10 11 9 11 9 10 11 8 9 10 10 11 10 9 9 8 9 10 12 12 10 10 10 10 13 12 11 12 11 10 9 9 8 7 6 7 7 6 4 3 3 3 5 4 2 2 3 3 2 3 2 3 3 4 4 4 3
8 8 12 13 7 7 8 8 9 10 9 8 7 6 14 5 4 6 2 0 3 7 3 4 6 6 7 9 9 9 10 7 8 9 9 11 10 11 13 13 13 12 12 12 13 12 12 12 12 10 10 11 11 11 10 11 12 10 8 9 10 8 7 7 6 6 5 5 6 5 5 4 3 3 3 3 3 3 3 3 3 3 4 4 4 3
11 19 5 6 5 6 10 9 8 7 8 9 10 10 11 12 10 8 4 2 0 4 7 7 7 8 6 8 7 6 6 7 6 5 8 8 7 7 8 9 10 11 13 14 12 11 11 12 13 14 12 11 12 12 12 11 12 9 11 10 11 10 10 8 6 6 7 7 7 6 5 4 6 5 3 3 2 2 2 3 3 3 3 3 4 4
15 13 1 2 3 5 7 8 9 8 8 6 13 15 18 6 4 7 5 4 4 5 5 6 2 5 4 9 11 5 6 11 7 10 8 8 7 10 12 11 10 7 9 13 15 13 12 10 11 10 12 12 11 11 10 9 10 10 10 9 8 7 6 8 8 8 7 7 8 6 5 4 2 3 4 6 7 5 4 4 2 3 3 3 4 4
7 0 1 3 4 6 7 9 7 9 8 4 6 15 17 13 9 5 2 3 3 6 2 6 7 5 2 8 9 8 11 12 7 9 8 9 10 9 10 12 11 11 9 6 7 9 12 11 12 12 13 13 12 10 9 9 10 10 9 10 10 9 7 7 8 9 7 6 6 8 7 6 7 7 4 1 2 4 3 4 4 3 2 3 4 3
2 3 1 1 3 5 6 8 5 10 7 7 1 9 11 11 11 10 7 9 6 1 1 4 5 5 5 6 6 10 12 12 12 10 9 8 9 10 11 11 10 9 10 9 13 12 13 14 15 15 12 12 11 11 10 9 9 11 10 9 9 7 8 8 7 9 8 8 6 7 5 5 6 6 5 4 3 3 4 4 3 3 2 2 3 4
1 3 2 2 2 4 6 6 3 9 7 2 2 3 8 11 12 7 6 8 6 4 7 6 7 3 6 4 5 11 13 15 14 13 11 10 10 9 9 11 10 10 15 15 12 12 15 15 13 9 11 11 11 11 11 11 10 9 9 9 8 8 8 8 8 8 9 7 7 7 5 5 3 3 3 4 4 4 4 5 3 3 3 2 2 2
2 3 4 3 2 8 5 4 4 7 9 6 2 1 4 3 3 7 6 8 6 5 7 5 8 4 5 3 7 11 12 13 14 14 12 11 12 12 11 9 9 11 11 12 13 13 13 12 10 10 10 9 9 8 8 8 9 9 9 10 11 9 7 8 9 8 8 7 6 7 7 7 5 4 4 4 5 4 3 4 4 3 3 3 3 2
10 2 5 2 6 5 3 4 4 10 11 1 3 3 3 4 4 5 5 5 4 6 9 5 9 7 3 5 9 12 12 12 10 9 8 9 10 10 11 12 11 11 12 12 13 12 11 9 9 10 13 11 9 9 11 11 11 10 10 11 13 11 8 8 9 9 9 8 7 8 9 9 8 7 7 6 4 4 4 5 5 4 4 3 3 3
8 3 1 4 2 0 1 7 3 6 8 6 1 1 3 3 4 4 3 5 4 5 3 8 11 10 4 2 5 8 5 11 11 12 12 11 11 11 11 10 12 12 11 11 10 10 9 10 11 11 12 13 12 11 12 10 10 10 9 10 11 10 11 9 9 9 9 9 9 8 9 9 8 9 8 8 8 7 6 6 5 4 4 3 3 3
8 3 2 3 1 4 2 5 3 2 3 5 5 4 4 2 2 3 3 5 6 5 2 1 10 4 11 4 3 6 5 10 9 10 14 15 15 14 12 13 11 10 9 10 10 10 11 12 14 13 11 11 12 12 12 11 11 11 10 12 13 12 11 11 10 11 10 9 9 9 9 8 7 8 8 8 7 8 8 6 6 6 5 4 4 4
8 3 1 2 1 2 1 4 6 3 2 4 4 2 2 3 2 3 3 2 2 2 1 5 5 2 0 3 4 7 6 2 6 7 7 11 12 13 12 11 10 9 10 10 11 11 12 12 12 12 12 13 12 12 13 13 12 11 11 13 13 12 10 10 10 10 9 10 9 9 9 8 7 8 8 7 7 7 7 7 8 8 7 7 7 6
5 8 2 1 2 2 2 2 3 4 6 3 2 3 2 1 1 3 2 5 2 1 3 6 6 4 4 1 1 4 2 1 1 2 7 7 8 8 9 9 10 10 9 10 11 11 12 12 13 13 13 12 12 12 12 12 12 11 12 13 13 11 11 11 10 9 9 9 8 8 8 7 6 7 7 7 7 7 8 7 8 7 6 6 6 6
4 7 9 1 3 5 1 1 1 1 4 2 2 2 3 2 1 3 2 2 1 2 3 6 4 1 3 1 4 2 1 2 1 6 9 11 10 10 10 11 11 10 11 9 9 10 11 12 12 11 11 12 11 13 11 12 12 12 13 13 14 13 11 10 10 10 10 9 8 8 9 8 8 6 5 5 5 6 6 8 8 8 7 6 6 4
3 5 3 7 1 3 1 3 1 0 5 2 3 1 3 1 1 3 3 4 2 2 0 1 1 1 2 1 4 3 6 2 4 6 8 10 11 12 11 11 11 11 11 11 10 10 11 10 10 11 12 11 11 12 13 13 12 12 11 12 13 12 10 11 10 9 9 8 8 9 9 8 7 7 8 9 8 8 7 7 7 7 6 6 6 6
0 13 13 2 3 1 0 2 1 0 1 3 1 3 4 2 2 1 2 1 1 0 1 3 3 3 2 1 3 6 6 2 3 6 7 9 11 12 10 11 11 11 10 8 8 7 9 12 14 12 11 12 13 12 11 12 11 10 10 11 13 12 13 11 10 10 10 10 9 8 9 8 9 8 9 7 7 6 7 6 5 5 6 8 7 6
0 9 5 2 4 3 2 2 0 2 1 2 4 1 4 2 1 1 1 0 1 0 0 1 1 1 0 0 2 4 3 3 4 5 8 10 11 10 9 9 8 8 8 10 11 10 9 8 8 9 9 8 9 10 10 9 10 10 10 10 11 13 12 11 9 8 8 9 7 7 8 9 9 8 7 5 6 7 8 8 7 8 7 7 6 6
1 2 8 2 1 3 2 2 4 4 1 1 0 2 1 2 2 2 1 1 0 0 1 2 2 1 0 0 0 2 1 1 2 5 7 8 9 8 7 8 9 10 10 10 10 9 9 9 10 10 10 10 10 10 9 10 9 11 11 10 10 9 8 9 10 10 10 9 8 8 7 8 8 8 8 8 8 8 8 8 8 7 7 10 7 7
2 1 5 6 4 1 0 1 1 2 4 4 3 5 2 1 1 0 2 1 1 2 1 2 0 1 1 1 1 3 2 1 1 1 4 6 7 6 7 7 8 8 8 9 10 10 9 9 8 7 7 8 8 9 10 11 12 11 9 10 11 12 11 11 11 10 9 7 8 8 9 8 8 8 7 8 8 8 8 7 7 7 6 7 8 8
0 0 5 9 10 3 2 1 0 1 1 2 1 2 3 5 4 2 2 2 2 0 1 2 2 0 1 1 4 4 2 1 0 1 1 6 6 6 5 6 6 7 7 7 7 7 7 6 7 7 7 7 8 9 10 9 9 11 12 11 11 11 12 12 11 10 9 8 7 9 9 9 8 9 8 9 8 8 7 7 7 7 7 9 8 8
0 1 0 9 6 8 1 2 1 1 2 1 2 0 0 1 2 0 2 2 1 0 0 1 2 1 0 1 3 5 4 3 1 1 2 3 6 5 4 4 4 5 5 6 7 7 7 8 8 9 10 10 10 9 10 10 12 12 12 11 11 12 13 12 10 8 8 7 8 9 9 9 9 8 9 9 8 8 9 8 7 7 8 8 8 7
1 1 4 7 8 4 2 2 2 2 2 0 0 1 1 2 2 3 2 2 1 3 0 1 1 1 1 2 3 4 5 4 3 3 2 3 5 5 5 5 5 4 4 5 6 6 7 8 9 9 9 9 9 10 11 10 9 10 10 11 10 12 11 10 10 10 9 9 9 10 10 10 9 10 10 10 9 10 9 8 7 8 8 8 7 8
2 2 1 7 7 6 2 1 1 1 1 1 3 2 2 2 3 4 2 1 1 1 0 1 2 2 5 6 5 4 4 6 5 4 1 4 4 6 6 5 5 5 4 5 7 8 8 9 10 10 9 9 9 9 10 10 10 10 11 11 11 10 9 8 8 9 10 9 10 10 11 10 10 11 11 11 9 10 9 8 8 7 7 7 7 7
1 3 1 3 4 8 9 10 9 9 7 7 2 2 1 3 3 1 2 1 1 1 1 2 2 1 3 5 7 8 7 6 5 3 4 4 2 3 5 4 5 6 7 7 6 7 9 9 9 9 10 10 10 11 10 10 10 10 10 11 10 10 9 9 8 9 10 10 11 11 11 11 10 12 12 11 10 10 10 10 9 8 7 7 8 8
1 0 1 3 3 6 8 5 2 2 5 4 11 8 5 1 2 3 2 1 3 2 2 1 1 4 6 9 9 9 7 6 5 6 6 4 4 4 2 2 4 5 6 8 9 7 6 7 9 9 10 10 10 10 10 11 11 10 10 10 10 10 10 11 11 11 11 11 12 10 11 11 12 11 10 10 9 8 8 9 9 9 9 8 8 9
1 1 2 2 7 9 9 10 1 1 4 6 5 10 9 6 3 2 3 3 2 2 3 2 2 2 5 7 8 8 8 6 5 5 4 4 5 3 2 2 2 2 1 2 2 5 8 8 8 9 9 9 9 9 9 9 11 12 12 12 11 11 11 10 10 11 11 10 11 11 12 11 9 9 9 8 8 9 10 9 9 9 8 8 9 9
0 2 3 2 10 9 10 9 5 3 4 5 7 8 7 8 6 6 4 3 5 2 3 1 5 3 3 4 6 5 4 4 5 4 4 4 3 2 2 2 1 0 1 3 3 3 4 6 6 7 8 8 7 9 8 8 8 7 8 7 9 9 10 9 9 9 10 10 11 12 11 8 8 8 8 9 9 10 10 9 8 7 8 8 8 6
1 2 2 3 10 8 4 2 1 2 2 4 6 6 5 4 1 1 2 3 4 3 2 2 3 3 3 4 5 6 4 5 4 2 1 2 2 3 3 2 0 0 0 1 3 3 4 5 5 6 6 6 8 9 9 9 9 9 9 8 8 9 8 8 9 10 10 11 12 10 8 8 8 8 9 10 11 10 9 9 9 9 9 9 8 7
2 4 4 1 4 8 1 1 1 3 1 5 3 5 3 2 1 1 1 2 3 1 2 1 2 5 3 4 6 2 4 5 5 3 4 2 1 1 0 1 3 2 2 3 4 4 4 3 4 4 5 6 7 7 7 7 7 6 7 7 7 8 8 9 10 10 10 12 10 9 8 8 9 9 10 10 9 8 9 10 9 9 9 9 9 9
5 5 2 3 6 7 1 4 2 2 3 4 5 2 3 2 1 0 0 3 2 0 2 3 5 3 3 3 4 7 8 6 5 5 5 3 2 1 1 2 3 4 4 5 5 4 5 6 6 6 7 7 7 7 7 7 7 7 8 8 9 8 7 8 8 10 11 11 8 8 9 9 8 8 8 8 10 9 9 8 8 9 9 8 9 8
1 2 6 5 6 4 4 3 10 6 4 3 5 4 2 1 1 2 2 0 4 3 5 2 1 5 4 1 1 3 3 4 6 4 3 3 1 1 2 3 4 4 4 4 5 5 5 5 4 4 4 4 6 7 7 6 5 7 7 7 8 6 8 9 10 10 10 7 7 8 7 6 7 8 8 9 9 8 8 9 8 9 9 11 8 6
1 2 1 0 1 7 10 12 4 4 5 2 4 0 0 1 0 1 0 3 2 5 1 1 2 0 1 4 5 1 1 1 2 3 1 3 3 2 3 5 7 7 6 6 6 5 5 5 4 4 5 5 5 5 3 4 6 6 4 5 4 7 7 8 7 7 7 6 7 7 7 7 8 9 9 8 8 8 9 9 11 11 9 7 7 10
2 1 0 1 0 6 10 10 2 4 3 3 0 2 1 1 2 3 4 4 4 3 4 4 4 3 5 4 3 3 3 4 3 5 4 3 4 4 3 4 5 5 4 3 3 4 4 4 4 4 3 4 3 2 4 4 5 4 4 5 6 6 7 6 7 6 7 8 7 7 8 8 9 9 8 8 8 9 10 11 10 9 9 9 10 10
0 0 1 0 1 2 4 6 3 1 5 3 2 1 2 1 0 1 2 2 3 5 4 2 3 2 2 2 2 3 4 5 4 4 5 3 6 6 4 1 2 1 1 2 2 3 2 3 5 5 6 3 1 3 4 6 5 6 6 5 7 7 7 7 8 8 7 8 7 8 8 9 9 9 8 9 9 10 11 11 11 11 9 8 8 7
3 3 1 2 1 2 1 1 7 6 4 3 2 1 2 1 0 1 2 3 1 2 5 1 2 2 1 0 1 2 3 1 5 2 1 3 4 6 3 2 1 2 3 3 3 3 2 3 4 5 3 2 4 4 7 4 5 5 5 5 5 6 6 7 8 9 8 7 7 7 8 9 10 9 9 10 11 12 12 11 11 10 7 8 9 9
2 1 2 1 1 3 1 6 6 4 1 4 3 3 1 1 1 0 1 2 1 2 3 1 0 1 2 2 3 3 2 4 5 2 2 2 1 2 2 4 4 4 5 5 3 4 4 4 3 3 4 4 4 5 3 4 5 5 5 5 5 6 6 7 9 6 6 8 8 9 9 10 10 11 11 10 12 12 11 10 7 8 9 10 10 10
4 5 3 1 1 2 1 0 2 1 1 3 2 2 1 1 2 1 2 3 4 2 6 3 1 1 1 0 1 4 5 4 2 4 3 2 3 0 2 4 4 4 4 4 3 3 2 1 1 2 4 4 5 5 4 4 5 6 6 5 6 6 7 9 8 8 10 10 9 9 9 9 10 9 10 11 11 10 10 10 10 8 7 7 7 8
3 2 1 1 0 1 3 0 3 3 1 1 2 3 2 1 2 1 2 2 2 3 4 4 1 2 2 1 2 2 3 2 1 2 2 3 3 4 2 3 3 3 4 3 3 4 3 3 1 1 1 2 3 2 5 5 6 6 6 5 5 7 9 11 10 8 6 6 7 7 7 8 9 9 10 11 10 9 10 7 6 7 9 8 7 7
1 1 4 2 1 1 2 3 2 5 3 3 2 3 2 1 1 3 1 2 3 2 4 4 1 2 4 4 3 0 5 3 1 2 4 5 6 5 2 3 5 4 5 5 3 1 1 2 2 4 4 3 0 1 3 5 5 6 5 5 6 11 12 7 5 6 6 5 6 7 8 7 8 10 9 9 9 8 6 6 7 7 8 8 6 6
0 1 0 2 1 1 4 1 5 5 7 2 2 3 1 1 1 2 3 1 2 3 4 4 1 3 5 5 5 5 0 0 3 4 4 4 4 6 5 5 5 5 5 5 5 3 3 2 3 4 5 5 2 2 3 4 5 5 5 5 10 12 3 4 5 5 5 6 6 6 6 6 6 6 7 5 5 6 7 6 6 7 7 6 7 9
2 1 2 1 1 2 2 1 4 1 1 3 1 0 0 1 3 2 4 2 5 3 4 4 4 2 4 2 5 5 5 7 5 5 5 5 4 5 4 4 4 4 4 3 2 1 2 2 3 4 5 2 1 4 5 5 5 4 4 8 11 3 4 4 5 6 7 7 8 8 8 8 8 8 6 6 6 6 7 5 6 6 7 8 7 8
3 1 2 3 6 1 1 1 1 4 1 2 2 2 2 4 1 2 2 2 1 2 2 2 4 6 5 4 4 4 5 5 8 3 5 4 3 5 5 5 5 5 5 5 5 5 1 3 4 5 4 3 1 3 4 5 5 5 6 12 5 3 3 4 4 4 5 6 7 7 8 8 9 9 8 8 8 8 8 7 7 7 7 7 8 8
7 3 4 0 2 4 3 4 4 2 3 3 4 5 4 3 1 3 4 2 1 1 4 1 2 2 8 6 4 3 3 3 4 3 2 5 5 5 5 5 4 5 5 5 5 3 3 5 5 3 4 3 3 3 4 5 7 6 8 6 4 5 6 5 5 5 5 6 6 7 6 6 7 8 8 8 9 9 9 8 7 8 6 7 7 7
2 0 2 1 5 5 8 12 5 6 6 9 6 7 6 5 3 3 4 2 4 4 6 2 1 2 1 4 1 3 3 4 5 6 5 5 5 7 5 6 6 4 4 4 4 3 3 2 2 3 5 5 3 5 5 6 6 8 8 2 4 5 5 5 6 6 8 7 6 6 5 6 5 5 6 6 7 8 8 9 9 9 8 8 8 9
2 1 1 2 2 3 5 2 3 6 4 3 5 4 6 8 7 5 4 6 5 3 4 4 4 3 3 3 4 5 6 4 4 6 5 5 6 6 6 6 7 5 5 5 4 1 0 1 1 4 4 5 3 4 5 6 8 9 4 3 3 4 4 5 6 7 6 7 7 6 6 7 7 6 6 6 6 6 6 7 7 8 8 9 9 9
2 3 1 4 1 3 8 4 7 6 7 6 5 5 6 7 9 8 9 5 4 3 3 4 3 4 3 3 7 5 7 4 4 7 5 4 5 4 5 4 5 4 3 3 3 1 1 2 4 4 4 6 6 4 4 5 8 8 6 4 2 3 4 5 6 6 6 6 5 5 5 7 7 7 6 6 7 7 7 7 8 9 11 11 11 11
1 4 3 3 4 8 8 12 13 8 9 11 8 8 10 9 5 5 6 7 5 7 7 4 5 5 6 7 4 4 5 7 6 6 5 5 5 5 4 4 4 4 4 3 3 3 5 4 4 5 4 7 4 3 4 6 6 5 6 5 4 4 5 6 5 5 5 5 4 6 4 6 5 6 6 6 6 7 8 9 9 10 10 9 8 10
4 4 3 1 2 5 6 7 2 1 3 3 5 7 8 9 7 7 2 3 5 7 8 6 5 6 8 6 5 4 5 7 4 3 5 6 6 6 5 5 4 4 4 4 3 4 5 5 5 5 5 7 4 4 5 5 5 5 5 4 4 5 6 6 5 5 6 6 6 6 5 5 6 5 6 6 6 7 7 8 10 9 10 9 11 15
7 9 7 6 6 7 7 8 4 2 3 7 4 1 2 1 6 6 8 8 9 10 6 5 5 3 5 7 6 7 7 7 7 2 5 6 8 6 5 4 5 5 5 2 3 3 4 4 3 4 5 7 4 4 5 5 5 4 4 5 5 6 6 5 6 6 6 6 7 7 6 6 6 6 6 7 7 6 7 6 7 11 14 13 9 10
Wind_Direction
132 213 234 236 242 237 225 207 216 230 236 221 111 188 243 239 267 260 269 248 102 338 247 254 258 247 258 254 249 227 219 223 216 208 207 205 189 170 172 167 154 153 142 143 137 133 132 130 128 128 129 129 128 131 134 132 133 137 139 140 140 141 134 131 131 130 133 130 104 68 149 133 140 119 101 85 78 79 77 78 78 81 82 82 79 68
81 257 253 240 245 251 250 225 228 245 238 227 247 251 264 230 262 243 250 215 214 162 276 267 270 257 249 250 249 234 212 218 217 209 205 201 180 171 169 166 147 127 100 123 126 133 132 134 136 135 137 143 143 151 147 148 148 144 143 145 140 141 140 141 145 145 142 149 158 151 162 145 143 132 133 113 97 100 82 78 76 81 80 78 75 78
220 234 254 266 255 249 255 241 218 222 232 218 232 245 271 254 240 277 255 258 235 179 265 273 272 263 245 242 242 229 218 214 211 208 204 200 179 169 164 151 135 124 128 130 126 136 139 140 143 144 146 152 150 152 153 151 148 149 151 151 145 143 143 146 147 144 147 149 121 125 146 149 126 78 107 109 107 100 94 73 75 79 80 83 76 76
278 254 250 269 276 252 253 227 221 221 226 226 213 222 234 227 133 289 297 74 178 173 230 224 250 269 254 248 238 230 220 217 211 198 201 202 185 177 172 159 150 145 146 154 154 152 151 151 151 150 153 158 157 156 157 158 154 152 153 151 145 140 138 142 150 146 121 102 90 81 112 89 94 137 104 88 98 105 97 79 74 67 83 83 86 81
251 271 306 294 262 233 258 246 205 215 229 215 213 224 246 225 213 205 227 335 294 238 226 266 289 282 252 252 249 235 223 224 215 198 201 204 192 172 141 142 155 155 155 147 146 145 146 154 166 168 162 156 163 166 166 164 163 163 160 157 157 155 152 149 151 138 117 107 87 94 84 86 82 67 79 112 114 144 126 108 82 82 87 91 93 86
266 272 261 262 280 264 251 255 214 210 242 221 220 218 231 248 219 236 277 341 336 302 201 164 253 258 216 223 230 213 199 218 199 197 196 175 153 147 155 151 151 129 153 156 157 161 162 156 154 159 165 170 168 169 167 161 160 158 159 153 151 144 143 150 150 138 142 143 140 147 149 150 118 138 168 193 184 180 172 159 124 89 91 105 96 91
258 155 36 271 288 270 243 245 234 194 232 237 252 204 228 231 223 221 180 132 249 229 279 159 190 270 181 213 213 208 208 210 179 191 166 172 157 161 163 160 155 144 145 152 132 138 154 164 168 171 174 175 170 168 157 161 163 161 162 162 159 155 149 150 152 150 152 153 160 176 182 177 183 184 210 149 129 156 123 117 123 116 93 98 108 97
195 272 202 185 254 272 268 266 231 190 214 240 182 172 206 214 218 219 196 200 237 336 288 198 205 224 277 248 208 190 209 209 201 195 173 162 163 158 160 161 149 145 145 152 161 169 171 172 176 176 175 174 173 159 157 162 165 168 167 165 162 155 151 159 159 163 165 173 173 177 184 184 188 195 185 164 139 118 126 122 123 114 92 75 97 115
129 286 193 277 276 270 270 243 275 187 200 208 355 177 189 197 212 205 199 220 237 269 268 199 199 214 247 273 175 176 202 210 209 198 190 171 161 159 153 163 155 156 163 161 160 170 176 177 179 166 165 168 159 164 165 168 169 163 159 158 155 163 158 165 167 170 178 176 174 183 178 188 183 143 130 125 119 134 138 121 115 107 96 85 65 96
282 216 233 176 184 275 233 258 238 201 218 261 340 151 132 161 174 182 201 220 225 224 252 225 172 207 263 178 186 180 201 208 205 193 188 178 171 164 158 157 153 160 163 169 171 175 176 173 165 160 150 158 170 163 164 156 160 165 162 164 166 168 165 164 173 178 178 178 174 178 189 187 172 136 120 135 148 145 149 143 137 122 123 126 107 81
262 133 148 141 228 221 247 261 217 214 225 40 17 237 192 147 162 164 204 219 230 235 243 191 181 195 249 189 194 180 206 196 187 180 182 178 178 169 163 157 163 167 172 174 172 176 176 169 147 153 169 167 160 170 171 169 171 170 174 171 173 172 162 168 178 179 184 181 183 189 194 190 175 161 154 155 153 145 166 163 156 153 157 151 143 122
271 240 107 242 220 311 73 305 189 230 236 249 283 240 222 216 151 170 192 188 235 260 246 184 181 188 220 238 209 209 173 193 186 185 176 170 172 175 168 167 167 170 174 169 166 166 156 153 168 176 170 172 174 170 175 175 169 174 177 174 173 171 170 173 181 183 186 184 192 201 195 192 181 167 171 177 179 176 174 175 166 163 148 165 154 129
304 209 239 285 179 178 260 275 250 209 177 203 241 278 256 178 172 221 190 215 215 237 266 172 151 133 232 221 219 215 196 178 186 181 180 181 181 180 173 169 168 166 160 162 166 163 165 173 175 180 172 168 173 181 177 173 175 175 175 178 179 182 177 181 181 188 186 188 197 198 196 193 174 177 179 179 181 182 182 163 165 171 178 172 174 187
285 291 352 275 44 209 163 349 341 10 149 222 201 211 214 225 198 254 197 270 259 238 217 121 185 237 11 268 196 204 212 174 168 180 190 188 177 171 162 158 157 159 163 168 174 175 174 174 176 176 174 177 178 178 178 178 178 179 178 179 185 185 180 183 188 189 189 199 200 201 199 193 177 184 182 183 185 183 184 173 177 181 181 185 194 180
340 342 307 17 328 143 185 192 177 225 282 265 266 238 270 282 236 263 187 204 207 204 141 124 131 228 160 213 204 220 210 276 301 161 148 135 133 135 134 142 149 164 165 175 179 180 176 176 175 176 180 181 180 177 178 180 182 178 181 180 184 181 183 186 190 187 195 200 202 205 204 196 185 186 186 187 185 178 179 178 176 182 178 185 192 191
220 235 259 208 254 139 229 217 117 228 243 235 248 253 264 280 84 245 275 317 160 136 123 161 176 313 121 356 294 295 253 73 78 112 131 136 135 134 143 159 168 163 175 180 181 180 181 178 177 178 179 178 178 181 181 182 182 184 184 181 184 185 182 184 186 193 195 201 198 201 201 201 192 187 181 179 177 178 184 177 179 180 182 182 171 175
326 290 234 313 160 186 217 126 287 47 339 354 314 339 334 2 265 284 270 226 277 57 321 42 255 320 313 37 2 23 82 58 93 118 137 142 148 152 162 170 174 174 178 180 182 182 179 175 180 183 183 178 179 180 183 184 185 186 180 180 183 185 181 188 192 191 194 200 200 202 201 199 192 186 189 193 186 180 179 173 177 174 177 162 169 171
266 279 302 326 351 59 351 127 149 259 186 302 338 327 284 206 289 298 288 336 50 130 290 351 347 339 55 189 347 39 70 63 108 136 144 150 155 168 173 175 177 180 180 173 173 179 184 185 183 183 184 180 180 181 181 184 182 182 185 185 182 182 188 189 189 192 194 199 203 202 203 203 199 198 200 191 178 166 161 166 163 154 161 177 174 168
164 303 290 231 234 258 71 119 358 251 213 185 274 7 322 339 277 165 243 188 334 343 230 347 317 271 170 110 360 38 52 106 162 153 149 161 171 175 172 175 174 164 160 169 180 187 186 187 189 187 180 174 176 178 178 175 178 183 187 188 188 188 189 186 187 192 197 199 199 201 204 204 203 204 197 175 162 163 172 176 174 177 179 160 161 166
342 247 292 286 334 312 349 86 350 312 208 250 100 352 154 225 237 293 351 307 355 244 255 310 30 308 295 238 159 277 52 8 29 172 176 166 177 177 173 178 176 174 177 178 181 188 187 188 187 180 173 173 172 171 172 174 175 185 188 184 187 184 182 180 189 193 201 198 195 198 199 207 200 199 187 178 171 173 181 181 177 174 166 167 164 178
268 175 266 277 317 332 46 3 231 210 340 338 18 2 2 320 250 86 280 256 300 182 150 92 60 286 308 231 281 303 303 347 104 322 185 172 180 180 177 178 178 179 179 178 181 183 186 185 177 168 162 161 165 171 172 176 182 183 181 186 183 183 183 190 192 191 200 192 198 195 201 201 193 192 191 181 175 177 180 173 173 179 168 154 181 175
336 340 242 314 336 345 247 62 121 191 187 147 134 30 297 322 352 351 316 112 42 55 213 141 223 282 279 1 312 298 309 250 145 200 312 161 184 180 174 175 172 180 180 174 173 175 174 162 156 153 152 159 166 171 175 176 175 183 189 189 185 186 190 189 189 191 192 191 192 200 203 203 192 190 185 182 179 174 171 172 176 170 155 178 182 182
158 210 312 291 247 248 169 184 174 192 92 95 111 330 144 236 267 276 275 331 350 177 183 198 106 330 196 300 296 293 290 283 259 175 257 165 168 174 166 157 159 163 166 164 164 169 165 158 158 162 168 172 174 173 173 178 186 187 188 188 192 191 195 189 180 175 180 186 194 202 204 199 194 187 185 182 181 183 178 175 169 166 174 181 178 185
116 39 312 265 282 294 54 54 33 23 124 30 259 241 79 317 285 258 278 342 245 326 354 345 52 49 337 316 322 298 284 269 268 213 271 145 154 160 158 156 154 151 148 150 155 158 159 157 159 164 173 173 174 177 183 185 184 184 188 193 192 199 194 186 182 179 182 189 197 199 200 197 189 186 186 186 186 185 179 169 169 173 184 182 168 177
356 289 126 305 342 334 346 359 39 232 56 84 312 268 190 259 263 248 286 221 349 351 244 352 112 78 342 347 349 2 24 42 43 15 296 153 168 163 164 165 160 158 148 153 162 163 158 159 167 175 174 177 180 181 182 183 185 185 188 189 195 199 193 188 178 178 186 187 194 199 203 197 188 190 192 193 186 183 170 171 167 174 187 179 176 171
158 241 35 18 349 343 338 345 340 334 340 304 200 281 158 339 329 314 284 298 348 352 89 68 49 7 293 359 22 26 23 43 34 31 39 43 83 122 134 144 155 162 178 170 164 160 166 169 174 175 180 182 184 184 183 184 185 189 190 194 190 187 188 187 177 186 185 189 195 199 201 199 193 197 195 191 186 182 175 169 171 175 183 183 180 172
183 4 159 156 178 229 241 246 248 357 318 341 314 328 341 20 273 227 246 334 13 317 69 89 302 306 5 349 5 5 16 21 15 24 27 28 27 44 72 121 157 172 172 174 173 176 167 168 179 182 180 186 186 186 185 183 184 187 191 191 189 189 186 189 186 188 192 193 198 198 201 199 201 197 192 190 185 173 171 175 173 175 185 184 187 181
78 309 265 189 235 240 255 265 284 40 271 272 309 315 330 354 347 332 13 16 330 291 20 15 294 346 355 336 352 350 350 352 2 5 16 25 7 2 27 60 53 81 75 74 115 160 176 183 182 183 186 185 189 188 189 189 188 189 190 193 189 189 192 192 190 191 193 193 200 205 204 205 196 191 191 180 172 177 176 173 175 182 179 177 190 187
132 231 270 85 261 241 256 269 308 288 228 261 288 294 310 330 13 38 338 341 329 34 53 327 337 26 326 331 328 317 323 310 301 333 333 305 309 343 16 69 71 89 143 156 177 199 184 185 192 189 187 189 181 185 189 187 189 192 195 190 191 188 195 188 189 193 195 197 204 208 205 193 187 185 175 174 174 177 180 179 177 175 179 186 196 191
94 259 233 187 288 294 279 255 290 214 276 279 265 277 293 298 343 93 358 335 16 62 304 338 349 307 289 293 310 294 319 295 284 264 275 44 16 349 354 15 304 299 340 275 228 211 217 200 192 199 192 184 182 185 189 190 192 192 185 189 183 186 189 173 193 192 197 203 208 206 195 187 182 180 174 177 183 183 178 176 176 179 185 190 192 187
60 283 50 274 333 302 313 344 202 325 221 287 288 291 284 272 278 103 103 328 329 29 342 335 359 17 324 274 280 330 322 306 313 360 10 339 39 76 30 306 311 292 262 240 239 220 220 228 214 198 190 192 196 194 190 194 193 186 186 184 182 186 183 179 189 194 196 206 205 197 186 184 188 176 183 185 177 176 179 182 176 182 189 191 190 188
47 290 59 48 351 305 314 27 286 268 235 211 291 329 21 45 50 235 178 210 130 209 314 345 25 19 288 295 325 320 332 328 312 329 344 341 354 6 300 278 240 244 234 246 245 235 215 208 198 193 198 199 197 191 192 196 191 180 195 186 187 188 172 181 189 195 202 207 196 190 190 190 177 178 180 172 183 181 180 170 176 188 190 189 194 191
106 25 351 358 354 265 263 14 326 346 81 6 336 327 263 215 223 307 273 326 220 150 116 81 235 214 203 19 7 288 294 314 334 342 329 332 354 248 266 281 289 283 255 242 245 244 244 235 216 197 195 191 194 193 208 191 177 197 192 186 193 158 171 188 194 199 204 200 187 194 189 169 170 177 178 186 182 175 170 177 186 194 193 200 192 173
46 69 335 156 7 265 301 326 335 43 34 261 244 196 163 259 84 70 254 248 244 183 212 192 207 241 210 180 201 218 221 195 231 275 272 253 299 296 264 266 262 257 257 253 235 231 236 233 228 213 202 198 193 191 181 183 194 205 192 178 147 170 184 186 198 198 201 190 192 188 177 173 176 183 186 181 174 172 179 184 199 200 197 189 181 196
40 56 93 119 255 287 319 344 43 18 250 233 196 271 247 296 215 228 266 259 247 246 265 284 259 242 229 216 219 221 236 264 243 250 270 227 195 225 245 232 239 233 242 268 291 279 271 281 299 306 302 263 222 169 149 179 189 156 145 155 168 180 176 191 190 199 197 194 194 181 178 178 181 186 182 176 175 178 189 197 201 195 195 193 197 198
227 89 206 38 168 317 9 17 54 255 247 277 278 216 289 274 310 338 338 304 238 207 195 232 255 257 267 277 263 232 228 260 281 235 229 230 200 200 208 254 310 285 276 239 230 252 231 233 231 233 245 261 179 187 185 194 167 161 175 165 173 175 183 184 193 202 196 200 191 186 183 179 184 185 179 176 180 188 198 202 200 201 196 195 202 205
133 106 88 320 75 47 211 209 250 308 339 352 27 52 179 20 355 64 78 328 312 204 163 222 308 316 336 287 253 256 268 291 49 2 201 201 215 220 210 245 234 258 237 262 204 232 215 210 206 226 219 222 202 190 208 187 165 169 156 167 178 174 185 185 200 205 199 199 189 187 184 183 184 186 182 183 188 197 202 201 205 205 186 197 204 202
113 53 239 59 309 124 8 329 347 14 312 285 245 277 280 292 329 219 91 318 300 229 206 148 86 327 345 334 358 328 357 66 41 14 296 314 229 267 301 281 289 269 252 260 271 254 246 231 222 223 198 200 211 220 201 171 168 163 167 179 175 179 194 200 214 204 195 200 193 190 188 189 188 190 190 189 197 202 205 204 202 200 186 198 200 208
49 75 120 133 198 30 38 188 245 130 258 212 271 307 325 338 138 107 64 357 273 195 195 182 165 253 234 119 329 16 48 57 329 262 276 290 324 293 281 279 254 253 259 247 249 277 285 298 220 192 176 178 203 218 180 167 162 166 186 186 185 190 198 211 211 198 200 203 195 193 191 191 192 193 191 196 204 202 203 201 202 191 177 203 206 217
59 342 8 4 47 157 129 57 286 196 190 55 240 288 303 84 161 67 41 300 259 240 191 170 184 205 209 222 100 68 97 35 281 280 263 310 301 275 224 276 312 322 308 292 292 262 277 331 14 2 337 224 243 171 165 157 163 179 187 193 177 197 216 217 212 206 203 196 193 192 190 192 194 197 196 202 204 203 207 197 182 183 191 202 204 211
351 333 45 227 172 184 155 268 313 301 264 272 270 271 308 231 60 67 172 238 283 240 197 181 190 203 152 155 181 119 235 187 189 258 310 327 341 318 308 272 261 272 278 292 283 333 302 288 238 239 237 251 286 149 157 156 161 193 198 186 192 217 222 216 195 194 198 191 191 196 199 198 198 200 205 203 204 201 198 187 193 188 191 197 195 202
336 123 310 85 82 205 195 183 238 244 248 214 254 208 237 67 18 180 237 194 226 264 223 199 195 211 166 172 185 200 227 297 290 295 287 267 231 259 273 278 293 292 263 253 268 289 288 277 262 272 277 259 225 172 164 165 181 197 191 192 221 228 193 178 185 176 179 190 198 202 202 204 210 210 208 206 194 193 202 198 190 191 191 191 191 203
191 123 241 183 154 79 54 15 358 23 274 166 172 65 215 75 229 219 276 282 186 241 190 226 215 241 167 235 236 241 284 304 304 295 285 288 284 278 289 302 301 286 297 316 306 207 187 265 267 259 251 273 177 167 172 165 187 196 198 219 237 210 183 187 181 185 188 191 195 199 200 200 198 202 198 199 195 195 203 183 185 191 185 190 197 206
207 155 275 275 190 131 60 152 201 210 209 175 136 254 235 207 176 169 148 299 197 176 201 234 253 211 201 206 229 255 255 273 304 303 318 290 280 287 290 285 287 293 290 272 252 273 336 282 283 282 288 286 233 173 171 169 193 210 213 240 232 195 190 184 195 187 196 203 206 203 204 201 200 199 196 194 188 193 196 192 191 193 194 192 196 203
216 171 175 11 230 153 200 220 246 236 203 237 192 225 220 242 196 190 175 221 261 265 178 176 262 214 193 201 222 220 275 223 236 233 253 271 280 271 273 264 246 249 246 248 259 252 208 223 244 274 294 270 225 210 196 196 195 209 225 241 186 203 190 190 180 187 204 212 213 213 214 208 205 203 200 197 187 193 199 200 185 197 201 190 202 205
308 173 178 116 245 262 255 236 267 295 258 258 229 227 243 266 243 158 187 238 234 214 183 185 221 248 209 182 225 289 223 262 307 302 296 291 296 294 294 299 299 286 279 290 290 254 229 254 280 294 282 291 229 210 208 212 203 212 230 192 187 191 189 177 180 193 207 208 210 213 203 207 219 216 213 207 204 207 200 196 192 201 193 194 204 205
257 168 128 213 269 31 288 343 181 232 256 255 245 268 251 245 240 186 198 216 241 209 218 243 215 220 197 159 195 236 266 257 264 275 282 298 295 287 294 293 290 290 291 296 286 331 102 133 258 266 259 275 270 210 214 213 221 231 247 215 192 182 174 185 192 208 212 214 212 203 193 204 210 211 210 209 209 211 207 202 199 201 203 200 204 207
324 176 159 218 134 172 234 257 261 259 256 264 243 278 269 243 231 219 221 233 227 234 212 223 172 215 155 205 215 211 251 231 219 258 271 257 262 268 271 265 274 301 276 240 275 265 286 234 238 248 243 251 257 222 221 222 231 236 237 239 201 170 169 190 201 210 219 218 213 211 205 210 212 207 209 210 203 206 212 212 204 205 210 203 202 201
162 121 223 167 185 273 307 279 271 283 284 270 250 235 237 234 220 228 226 244 260 268 267 253 206 217 184 227 181 199 243 255 217 230 247 273 277 272 253 248 242 245 262 274 243 188 203 216 230 238 235 258 256 225 220 230 239 239 232 229 207 177 183 207 213 219 227 219 207 222 209 213 210 212 212 214 215 225 215 205 207 217 229 225 208 205
104 212 204 115 303 294 225 254 131 75 288 276 263 234 228 230 215 233 204 232 225 237 243 240 246 216 220 223 200 187 222 267 252 199 242 250 257 266 277 271 261 250 247 226 226 222 230 225 225 242 248 258 240 236 237 244 239 228 221 208 198 183 200 213 210 216 227 213 211 217 205 210 212 210 212 213 219 226 246 242 232 226 223 235 219 224
189 201 144 190 166 237 248 240 196 157 232 230 228 273 279 200 160 189 218 223 231 224 205 189 248 265 229 233 200 195 227 239 264 209 250 269 263 247 242 253 276 286 285 284 303 271 240 249 225 234 256 263 249 241 238 246 246 230 205 190 187 186 202 197 211 225 232 213 221 210 207 205 210 207 206 211 214 219 234 258 251 244 246 249 248 235